sat.trackr.live / text

‹ back to catalog

STARLINK-11526 [DTC]

NORAD 63007 · 2025-032C

PAYLOAD ACTIVE UNKNOWN

§ Identity

Operator
Country
US
Launch date
2025-02-15
Launch site
AFETR
Launch vehicle
Mass (kg)
RCS (m²)

Purposes: comms

External: N2YO · Heavens-Above · Gunter

§ Orbital elements

Epoch: 2026-09-21T21:00:27.631584Z

Period
91.66 min
Inclination
42.9995°
Eccentricity
0.0004222
Mean motion
15.70981537 rev/d
Perigee alt
353.2 km
Apogee alt
358.9 km
Semi-major
6,734.2 km
B*
1.4431e-3
RAAN
92.3586°
Arg perigee
270.5728°
Mean anomaly
89.4656°
Rev number
9,307

§ Raw data

STARLINK-11526 [DTC]1 63007U 25032C   26264.87531981  .00190198  00000+0  14431-2 0  99922 63007  42.9995  92.3586 0004222 270.5728  89.4656 15.70981537 93073

JSON: /api/v1/satellites/63007 · /tle

For live sub-satellite position, see the globe view (requires WebGL).

§ Visibility from observer

Set your observer location to see the next 7 days of passes ≥ 10°. The values pass through the URL so the page stays shareable.

No JS? Fill the form by hand. The geolocation button needs JavaScript.